Location: Menands
(42.6920°N, 73.7246°W)
Time: 17:06:37
(UTC+00:00)

Cosmos 2034 Rocket - Pass Details

Date: 18 February 2026
Orbit: 957 x 1000 km, 82.9° (Epoch: 13 March)

Event Time Altitude Azimuth Distance (km) Brightness Sun altitude
Rises 23:22:53 0° 357° (N) 3,654 7.0 -10.2°
Reaches altitude 10° 23:25:29 10° 2° (N) 2,707 6.3 -10.7°
Maximum altitude 23:31:29 50° 78° (ENE) 1,220 4.1 -11.8°
Drops below altitude 10° 23:37:29 10° 152° (SSE) 2,715 6.1 -12.9°
Sets 23:40:05 0° 158° (SSE) 3,665 6.8 -13.4°
